CloseHelpProblem

Burley Spudman

07/28/12


PlBibName RepresentingAge Division Interval TimeTime BackTotal Time
01245Todd GROLLFARMINGTON UT USA07 M 45-4900:00:00.000+0:0001:47:33.6
11239Gregg GREEREDEN UT USA07 M 45-4900:01:10.280+0:0001:47:29.531
21301Whitney PHILLIPSBOUNTIFUL UT USA07 M 45-4900:01:13.581+0:03.301:26:09.051
31251Michael HOUSLEYSMITHFIELD UT USA07 M 45-4900:01:22.754+0:09.101:35:11.996
41237Ron VAN TIENDERENSALT LAKE CITY UT USA07 M 45-4900:01:30.120+0:16.501:45:13.077
51306Adam DEWAALSLC UT USA07 M 45-4900:01:30.930+0:17.301:27:27.861
61233Alan SMILEYPROVO UT USA07 M 45-4900:01:32.870+0:19.201:26:53.3
71303Matt BRIDGESBUHL ID USA07 M 45-4900:01:36.166+0:03.201:39:45.700
81285Steven ORROCKALPINE UT USA07 M 45-4900:01:36.785+0:03.901:22:01.677
91302Tracy MOBLEYRIGBY ID USA07 M 45-4900:01:38.733+0:05.801:26:25.493
101249Paul SLADEMURRAY UT USA07 M 45-4900:01:38.737+0:05.801:29:12.279
111265Greg ANDERSONSOUTH JORDAN UT USA07 M 45-4900:01:39.348+0:06.401:33:25.726
121241Kris PAINTERRIVERTON UT USA07 M 45-4900:01:40.259+0:07.301:47:37.946
131289Kevin HALVERSONRUPERT ID USA07 M 45-4900:01:43.628+0:10.701:49:53.706
141257Bruno GERBERRIVERTON UT USA07 M 45-4900:01:45.515+0:12.601:27:22.512
151328Doug LENIOPOCATELLO ID USA07 M 45-4900:01:48.807+0:15.901:24:27.661
161255Daren GEHRINGNORTH LOGAN UT USA07 M 45-4900:01:49.356+0:16.401:42:12.288
171231Jeff OTTORIVERTON UT USA07 M 45-4900:01:50.100+0:17.201:34:06.763
181263Bart LARSENIDAHO FALLS ID USA07 M 45-4900:01:50.921+0:18.001:29:16.036
191250Curt EVANSSOUTH JORDAN UT USA07 M 45-4900:01:52.117+0:19.201:47:36.614
201288William ASHTONSOUTH JORDAN UT USA07 M 45-4900:01:55.275+0:22.401:41:43.623
211238Shane DAMRONINKOM ID USA07 M 45-4900:01:59.580+0:26.701:40:11.149
221297Doug GARRETTMILLVILLE UT USA07 M 45-4900:02:02.735+0:29.801:39:47.897
231227Glenn WAKEFIELDHEBER CITY UT USA07 M 45-4900:02:05.135+0:32.201:33:03.641
241287Brad BARLOWFRUITLAND ID USA07 M 45-4900:02:06.440+0:33.501:29:41.436
251247Kleigh HUMPHREYSALT LAKE CITY UT USA07 M 45-4900:02:09.661+0:36.701:37:54.769
261293Lonnie HUNTERSOUTH JORDAN UT USA07 M 45-4900:02:11.824+0:38.901:37:53.632
271232Frank MENDEZMURRAY UT USA07 M 45-4900:02:11.879+0:39.001:44:05.736
281242Darin ANDERSONLEHI UT USA07 M 45-4900:02:13.714+0:40.801:43:27.804
291266Temp PATTERSONBURLEY ID USA07 M 45-4900:02:15.020+0:42.101:34:10.335
301280Tim CHESLEYPARK CITY UT USA07 M 45-4900:02:16.537+0:43.601:40:24.637
311281Brad CHRISTENSENALPINE UT USA07 M 45-4900:02:18.119+0:45.201:48:23.405
321230Thayne PETERSONALPINE UT USA07 M 45-4900:02:19.229+0:46.301:35:46.165
331260Myron VAWDREYDRAPER UT USA07 M 45-4900:02:19.576+0:46.701:45:28.144
341235Greg SCHERERNORTH OGDEN UT USA07 M 45-4900:02:20.483+0:47.601:52:07.836
351320David LARSONCENTERVILLE UT USA07 M 45-4900:02:24.114+0:51.201:34:01.921
361248Paul KORTHWEST JORDAN UT USA07 M 45-4900:02:25.170+0:52.301:45:23.033
371312Stuart ROBERTSONVANCOUVER WA USA07 M 45-4900:02:37.669+1:04.701:46:16.063
381298Peter KLAASSIDAHO FALLS ID USA07 M 45-4900:02:38.006+1:05.101:59:15.648
391272Brad CHILTONPOCATELLO ID USA07 M 45-4900:02:39.474+1:06.601:44:24.754
401268Daniel SNOWPROVO UT USA07 M 45-4900:02:42.003+1:09.101:49:10.786
411229Brian PIKETWIN FALLS ID USA07 M 45-4900:02:43.634+1:10.701:40:29.529
421259Brad BURGESSWEST JORDAN UT USA07 M 45-4900:02:46.664+1:13.701:47:55.473
431252Tony CHRISTENSENKAYSVILLE UT USA07 M 45-4900:02:47.272+1:14.402:00:24.715
441291Scott DEBERARDNORTH LOGAN UT USA07 M 45-4900:02:49.073+1:16.201:40:48.105
451310Lonnie MCMURTREYTHORNTON CO USA07 M 45-4900:02:49.623+1:16.701:48:55.010
461244Shon RINDLISBACHERRIVERTON UT USA07 M 45-4900:02:50.970+1:18.101:45:31.636
471300Bart HANSONJACKSON ID USA07 M 45-4900:02:53.810+1:20.901:44:41.404
481282Robert CONLEEALPINE UT USA07 M 45-4900:02:54.271+1:21.401:45:59.328
491329Perry CRAWFORDTREMONTON UT USA07 M 45-4900:02:57.987+1:25.101:43:48.866
501276David MOXHAMDRAPER UT USA07 M 45-4900:03:03.900+1:31.001:50:59.149
511319Daniel SORENSENSALT LAKE CITY UT USA07 M 45-4900:03:05.226+1:32.301:48:30.2
521226Anthony BARNHARTTWIN FALLS ID USA07 M 45-4900:03:07.589+1:34.701:49:45.198
531332Aaron HALLSALT LAKE CITY UT USA07 M 45-4900:03:10.026+1:37.102:07:19.101
541271Andy BOYCEDRAPER UT USA07 M 45-4900:03:21.468+1:48.501:47:24.773
551261Matthew MITTONBOUNTIFUL UT USA07 M 45-4900:03:22.227+1:49.301:51:22.029
561323Sean KUNZLEROGDEN UT USA07 M 45-4900:03:29.296+1:56.401:47:42.341
571240Tim JONESBOUNTIFUL UT USA07 M 45-4900:03:30.954+1:58.001:57:32.206
581321Brian WOLSEYALPINE UT USA07 M 45-4900:03:32.724+1:59.802:09:48.903
591277David BLACKBURNEAGLE MTN UT USA07 M 45-4900:03:32.739+1:59.801:52:46.644
601311Morgan GOFFSAN DIEGO CA USA07 M 45-4900:03:57.071+2:24.201:55:35.634
611294Alan NIELSONLITTLE ELM TX USA07 M 45-4900:03:57.626+2:24.702:00:07.910
621292Jeff LAWRENCEIDAHO FALLS ID USA07 M 45-4900:03:59.186+2:26.302:00:00.042
631279Daren STEGELMEIERMORGAN UT USA07 M 45-4900:04:02.876+2:30.002:01:52.663
641313Lynn LANGFORDALPINE UT USA07 M 45-4900:04:19.128+2:46.201:59:39.362
651270Barry JOHNSONALPINE UT USA07 M 45-4900:04:21.305+2:48.401:53:42.031
661290Matthew JOHNSONCENTERVILLE UT USA07 M 45-4900:04:56.749+3:23.802:09:47.749
671254Jeffrey KINGKAYSVILLE UT USA07 M 45-4900:05:01.087+3:28.201:57:19.716
681978Richard MATHESON07 M 45-4900:05:11.855+3:38.901:58:22.471
691324Alan DAYLEYALPINE UT USA07 M 45-4900:05:59.954+4:27.002:00:18.926
701278Glen ALLENBURLEY ID USA07 M 45-4900:08:00.123+6:27.202:00:54.038
711286Craig RASBANDFARMINGTON UT USA07 M 45-4900:08:06.348+6:33.402:05:02.727